NANOSATCBR1
1 40024U 14033Q 18350.20153700 .00000316 00000-0 38912-4 0 9993
2 40024 97.9107 267.1147 0011182 305.9301 54.0878 14.89710356243978
EO-79
1 40025U 14033R 18350.22092876 .00000199 00000-0 27236-4 0 9998
2 40025 97.9050 265.2119 0011436 311.2862 48.7369 14.88832419243876
DTUSAT-2
1 40030U 14033W 18349.76377216 .00000227 00000-0 30536-4 0 9994
2 40030 97.8983 263.2037 0010855 308.1561 51.8676 14.88432707243746
EO-80
1 40032U 14033Y 18350.77039191 .00000209 00000-0 28659-4 0 9999
2 40032 97.8990 264.2086 0010755 305.0594 54.9613 14.88372790243887
ANTELSAT
1 40034U 14033AA 18350.54387888 .00000172 00000-0 33076-4 0 9993
2 40034 97.7841 220.2407 0058268 331.6959 28.1088 14.74016946241546
VELOX-1
1 40057U 14034E 18350.61974714 .00000287 00000-0 47839-4 0 9996
2 40057 98.2185 104.9980 0012284 102.9940 257.2644 14.77549861240585
DAURIA DX 1
1 40071U 14037C 18350.88239577 .00000097 00000-0 19959-4 0 9996
2 40071 98.4000 130.6938 0009895 94.4625 265.7722 14.81217667240040
UKUBE-1
1 40074U 14037F 18350.89282087 .00000283 00000-0 41248-4 0 9997
2 40074 98.4097 137.6898 0005511 85.3561 274.8284 14.83932484240395
HODOYOSHI-1
1 40299U 14070B 18350.78150377 .00000498 00000-0 24047-4 0 9993
2 40299 97.3657 69.2291 0012332 336.9547 138.1273 15.23141062228271
CHUBUSAT-1
1 40300U 14070C 18350.82744128 .00000445 00000-0 22563-4 0 9997
2 40300 97.3480 64.4888 0020131 345.6889 82.1678 15.21833675228058
QSAT-EOS
1 40301U 14070D 18350.79695917 .00001323 00000-0 54917-4 0 9999
2 40301 97.3455 66.5519 0025314 332.2462 142.7734 15.25338877228258
FIREBIRD FU3
1 40377U 15003B 18350.82451028 .00002250 00000-0 93670-4 0 9995
2 40377 99.0900 288.8300 0129081 343.3648 16.3364 15.17978602214029
FIREBIRD FU4
1 40378U 15003C 18350.81239765 .00002186 00000-0 91076-4 0 9993
2 40378 99.0904 288.8824 0129305 343.2947 16.4041 15.17985211214022
GRIFEX
1 40379U 15003D 18350.81105503 .00001629 00000-0 73968-4 0 9997
2 40379 99.0903 284.0547 0137066 358.6884 1.3964 15.14882758213749
NO-84
1 40654U 15025D 18349.34048455 .00005036 00000-0 81547-4 0 04842
2 40654 054.9916 296.1014 0146183 209.9330 149.3259 15.43754300083799
NO-83
1 40655U 15025E 18349.26598972 .00017007 00000-0 14331-3 0 05734
2 40655 054.9716 215.6425 0082110 258.2405 100.9407 15.65642751084563
DEORBITSAIL
1 40719U 15032E 18350.75187384 .00000311 00000-0 51828-4 0 9995
2 40719 97.9263 241.0965 0016244 175.0187 185.1187 14.76591095185116
NUDT-PHONESAT
1 40900U 15049B 18350.73068554 .00001864 00000-0 84411-4 0 9998
2 40900 97.4403 356.9585 0015062 107.5619 309.7705 15.22045880179672
XW-2A
1 40903U 15049E 18350.75372284 .00001508 00000-0 38323-4 0 9997
2 40903 97.3638 27.2777 0015727 91.1483 44.0743 15.41168233181910
XW-2C
1 40906U 15049H 18350.71679176 .00000661 00000-0 38358-4 0 9993
2 40906 97.4640 350.9326 0016459 113.8546 301.4369 15.15434612179131
XW-2D
1 40907U 15049J 18350.91524520 .00000648 00000-0 37490-4 0 9999
2 40907 97.4613 350.8082 0015879 111.1968 310.4626 15.15603664179179
LILACSAT-2
1 40908U 15049K 18350.83021012 .00000131 00000-0 10877-4 0 9996
2 40908 97.4735 349.8398 0017589 115.1729 7.1465 15.13655639178999
XW-2E
1 40909U 15049L 18350.73967975 .00001000 00000-0 53282-4 0 9996
2 40909 97.4578 353.0249 0015484 108.7967 307.3813 15.17398761179291
XW-2F
1 40910U 15049M 18350.71244803 .00000916 00000-0 49718-4 0 9998
2 40910 97.4596 352.2576 0016553 106.6262 311.5330 15.16914714179124
XW-2B
1 40911U 15049N 18350.74979882 .00000702 00000-0 40399-4 0 9993
2 40911 97.4643 351.2457 0015798 112.1072 353.1481 15.15540615179040
DCBB
1 40912U 15049P 18350.75598095 .00000977 00000-0 49551-4 0 9991
2 40912 97.4508 355.5547 0016932 93.1953 321.5049 15.19178475179386
TW-1C
1 40926U 15051B 18350.72794787 .00007272 00000-0 12202-3 0 9999
2 40926 97.1626 32.3591 0008421 344.1353 157.3437 15.52070507181591
TW-1A
1 40928U 15051D 18350.75643563 .00002564 00000-0 66879-4 0 9998
2 40928 97.1674 21.0442 0012400 28.7878 38.3168 15.39673842180869
IO-86
1 40931U 15052B 18350.19790509 .00000548 00000-0 -12944-4 0 9999
2 40931 6.0061 292.2390 0014147 59.8322 154.1706 14.76591805173949
LQSat
1 40958U 15057A 18350.89059637 .00000018 00000-0 10416-4 0 9993
2 40958 97.9224 59.8301 0019418 109.3020 251.0275 14.73060423171747
AO-85
1 40967U 15058D 18349.47142563 .00000189 00000-0 37207-4 0 05416
2 40967 064.7774 000.8371 0213568 259.2795 098.4214 14.75839994080405
ATHENOXAT-1
1 41168U 15077C 18350.73230324 .00001340 00000-0 35777-4 0 9992
2 41168 14.9892 123.8170 0011965 60.0544 157.8898 15.13199263166063
ChubuSat-2
1 41338U 16012B 18350.11053152 .00000275 00000-0 14772-4 0 9993
2 41338 31.0024 237.7322 0013646 75.0800 285.1345 15.00069136155175
ChubuSat-3
1 41339U 16012C 18350.10195816 .00000354 00000-0 20844-4 0 9992
2 41339 31.0106 236.1286 0013441 81.6838 278.5323 15.00250873155167
Horyu-4
1 41340U 16012D 18350.85587806 .00000366 00000-0 21197-4 0 9995
2 41340 31.0040 224.4536 0013846 105.6430 254.5734 15.01129430155365
OUFTI-1
1 41458U 16025C 18350.68268921 .00002071 00000-0 11062-3 0 9998
2 41458 98.1169 63.1490 0167282 255.1608 103.1035 15.05223756144899
e-st@r-II
1 41459U 16025D 18350.85769906 .00001043 00000-0 58619-4 0 9995
2 41459 98.1190 63.0959 0167611 255.5079 102.7496 15.04912391144890
AAUSAT4
1 41460U 16025E 18350.78241153 .00001166 00000-0 63936-4 0 9992
2 41460 98.1113 63.8417 0158376 250.3268 108.0788 15.06553697144979
LO-87
1 41557U 16033B 18350.83496026 .00000887 00000-0 36521-4 0 9994
2 41557 97.4293 74.3918 0012957 222.2972 137.7268 15.26729267142031
NuSat2
1 41558U 16033C 18350.83563548 .00000977 00000-0 37771-4 0 9997
2 41558 97.4314 74.8536 0011934 224.9616 135.0659 15.28613947142040
Lapan A3
1 41603U 16040E 18350.80857193 .00000179 00000-0 11558-4 0 9994
2 41603 97.3881 48.7667 0012841 329.5714 140.2240 15.19645331137818
Swayam
1 41607U 16040J 18350.24219361 .00001020 00000-0 46622-4 0 9991
2 41607 97.3918 50.5233 0012512 325.3222 34.7197 15.22761012137802
Pratham
1 41783U 16059A 18350.41289010 .00000017 00000-0 12742-4 0 9994
2 41783 98.0953 48.8017 0032474 242.1842 117.6068 14.62961417118606
AlSat 1N
1 41789U 16059G 18350.69483505 .00000098 00000-0 27762-4 0 9992
2 41789 98.0977 50.6813 0027259 231.4849 128.3910 14.64202756118720
ScatSat
1 41790U 16059H 18350.10362326 -.00000003 00000-0 10542-4 0 9992
2 41790 98.2367 34.3616 0017042 252.3594 107.5740 14.50883712117568
TY-1
1 41844U 16066D 18350.73371973 .00001343 00000-0 58571-4 0 9998
2 41844 97.4062 355.3415 0016910 112.0813 4.5845 15.23786265116672
Pegasus-1
1 41846U 16066F 18349.87127201 .00000242 00000-0 46440-4 0 9995
2 41846 98.7361 21.8976 0368790 67.6593 296.3244 14.37459442110006
CAS-2T
1 41847U 16066G 18350.70315251 .00000055 00000-0 18243-4 0 9996
2 41847 98.7314 23.2500 0366997 62.2150 301.5736 14.37944629110552
TO-89
1 41932U 98067KU 18350.75023110 .00255508 40945-4 34716-3 0 9990
2 41932 51.6215 106.8320 0004744 315.0651 44.9977 16.05804494109732
EO-88
1 42017U 17008BX 18350.47755262 .00001063 00000-0 45484-4 0 9994
2 42017 97.4279 54.2905 0007987 97.8440 262.3704 15.24982359101848
HAVELSAT
1 42700U 98067LH 18350.63327847 .00079354 00000-0 28618-3 0 9996
2 42700 51.6251 132.6104 0004096 252.4703 107.5854 15.87946923 90827
SOMP2
1 42701U 98067LJ 18350.81402139 .00057065 00000-0 24315-3 0 9990
2 42701 51.6318 135.4318 0003765 234.1271 125.9383 15.84646695 90796
